Location: Katowice
(50.2611°N, 19.0242°E)
Time: 00:47:26
(UTC+02:00)

A-11 Canister half - Pass Details

Date: 28 July 2019
Orbit: 1526 x 1683 km, 47.3° (Epoch: 23 August)

Event Time Altitude Azimuth Distance (km) Brightness Sun altitude
Rises 02:12:01 0° 289° (WNW) 4,860 11.6 -18.3°
Reaches altitude 10° 02:15:37 10° 280° (W) 3,848 11.0 -18.1°
Maximum altitude 02:23:43 31° 223° (SW) 2,506 9.6 -17.7°
Enters shadow 02:29:08 18° 177° (S) 3,140 10.1 -17.3°
Drops below altitude 10° 02:31:37 10° 166° (SSE) 3,734 - -17.1°
Sets 02:35:04 0° 156° (SSE) 4,697 - -16.9°
